Regional Weather Roundup
Issued by NWS Cleveland, OH

Home | Current Version | Previous Version | Text Only | Print | Product List | Glossary Off
Versions: 1 2 3 4 5 6 7 8 9 10 11 12 13 14 15 16 17 18 19 20 21 22 23 24 25 26 27 28 29 30 31 32 33 34 35 36 37 38 39 40 41 42 43 44 45 46 47 48 49 50

831
ASUS41 KCLE 231202
RWRCLE
OHIO REGIONAL WEATHER ROUNDUP
NATIONAL WEATHER SERVICE CLEVELAND, OH
800 AM EDT SAT JUL 23 2016

NOTE: "FAIR" INDICATES FEW OR NO CLOUDS BELOW 12,000 FEET WITH NO
SIGNIFICANT WEATHER AND/OR OBSTRUCTIONS TO VISIBILITY.

OHZ001>008-015>018-024>027-034-035-043-044-231300-
   NORTHWEST OHIO

CITY           SKY/WX    TMP DP  RH WIND       PRES   REMARKS
DEFIANCE       MOSUNNY   74  70  87 CALM      30.00S FOG
FINDLAY        SUNNY     77  70  79 CALM      30.00S
TOLEDO EXPRESS SUNNY     73  71  93 W5        29.99S
TOLEDO EXEC    SUNNY     75  72  90 W5        30.00S
LIMA           SUNNY     73  72  96 SW3       30.02S
$$

OHZ009>014-019>023-028>033-038-089-231300-
   NORTHEAST OHIO

CITY           SKY/WX    TMP DP  RH WIND       PRES   REMARKS
CLE-HOPKINS    PTSUNNY   77  72  84 SW5       30.01S
CLE-LAKEFRONT  SUNNY     80  73  79 SW7       29.97S
CUY CO. ARPT   MOSUNNY   79  75  89 W7        30.00R
LORAIN-ELYRIA  SUNNY     75  72  90 W5        30.00S FOG
ASHTABULA      SUNNY     74  73  97 W6        30.00R
AKRON-CANTON   MOSUNNY   76  72  87 W6        30.02S FOG
WOOSTER        SUNNY     75  73  93 W6        30.02F FOG
MANSFIELD      MOSUNNY   77  74  90 CALM      30.03F
YOUNGSTOWN     MOSUNNY   74  72  93 SW5       30.01S FOG
$$

OHZ042-051>053-060>062-070>072-077>081-231300-
  SOUTHWEST OHIO

CITY           SKY/WX    TMP DP  RH WIND       PRES   REMARKS
CINC-COVINGTON CLOUDY    75  73  93 CALM      30.03S FOG
CINC-LUNKEN    PTSUNNY   72  72 100 SW3       30.02S FOG
HAMILTON       SUNNY     75  71  87 CALM      30.03S
DAYTON         MOSUNNY   76  72  87 CALM      30.03F
WRIGHT-PAT AFB SUNNY     74  74 100 CALM      30.02S
DAYTON GENERAL SUNNY     75  71  87 CALM      30.02S
WILMINGTON     SUNNY     73  70  90 CALM      30.03F FOG
$$

OHZ036-037-039>041-045>050-054>059-063>069-073>076-082>088-231300-
  CENTRAL AND SOUTHEAST OHIO

CITY           SKY/WX    TMP DP  RH WIND       PRES   REMARKS
COLUMBUS       MOSUNNY   72  69  90 SE3       30.01F
OSU AIRPORT    SUNNY     74  72  93 CALM      30.02S FOG
BOLTON FIELD   SUNNY     70  70 100 CALM      30.02F FOG
RICKENBACK AFB SUNNY     70  69  98 S3        30.02F FOG
NEWARK         SUNNY     71  70  96 S5        30.02S FOG
MARION         SUNNY     75  71  87 CALM      30.02S FOG
LANCASTER      SUNNY     73  70  90 CALM      30.03S
ZANESVILLE     CLOUDY    73  68  84 SW3       30.03S
NEW PHILLY     SUNNY     76  70  82 CALM      30.02S
$$




USA.gov is the U.S. government's official web portal to all federal, state and local government web resources and services.